Simultaneous Nadir Overpasses (SNOs) Predictions

Prediction of SNOs between GOES-15 and TERRA Satellite Orbit:

Table of predicted SNOs for the next 14.0 days since TLE Epoch: 11/24/2018
Index Date Time (GOES-15) GOES-15 Lat,Lon TERRA Lat,Lon Distance(km) Time Diff (sec)
1 11/25/2018 06:45:27 0.22,-128.34 1.09,-124.26 464.82 80
2 11/25/2018 19:06:42 -0.21,-128.35 0.02,-129.41 120.36 80
3 11/27/2018 18:57:09 -0.20,-128.39 -0.64,-126.45 221.50 80
4 11/28/2018 07:18:32 0.19,-128.42 -0.50,-131.63 365.07 80
5 11/30/2018 07:06:19 0.19,-128.46 0.16,-128.67 23.97 80
6 12/02/2018 06:51:25 0.19,-128.49 0.76,-125.70 317.05 80
7 12/02/2018 19:12:40 -0.17,-128.47 0.34,-130.85 270.50 80
8 12/04/2018 19:03:07 -0.17,-128.51 -0.32,-127.89 70.42 80
9 12/06/2018 18:50:53 -0.17,-128.54 -0.92,-124.92 410.90 80
10 12/07/2018 07:12:16 0.16,-128.58 -0.15,-130.11 174.24 80




NCC Satellite Simultaneous Nadir Overpasses (SNOs) Prediction Service
